Theta_e
344 342 344 344 346 346 347 346 347 349 347 347 347 347 345 347 349 353 357 357 357 356 354 354 355 357 357 355 355 355 354 353 352 351 350 349 348 347 347 345 344 344 345
348 343 345 345 346 347 346 345 346 347 347 346 348 348 349 349 347 353 354 355 357 357 357 355 355 354 353 355 355 354 353 352 352 352 351 350 349 349 349 348 347 345 345
353 355 345 346 346 347 346 347 350 347 346 345 347 347 346 348 352 357 356 355 352 352 351 351 351 352 353 354 353 351 351 350 350 349 349 349 349 348 347 347 347 346 346
354 356 346 346 347 349 345 344 345 343 343 342 343 346 349 353 354 353 353 351 351 347 346 347 346 347 347 347 345 344 343 343 343 344 345 346 346 346 346 346 346 345 344
348 353 347 347 353 347 345 344 343 344 341 341 343 349 349 348 349 346 345 343 344 343 341 341 340 341 341 340 339 338 337 337 337 338 338 338 339 340 340 341 341 341 340
349 352 348 352 353 346 345 345 351 345 344 342 342 343 345 346 347 343 339 340 340 340 340 338 337 334 334 334 333 333 332 332 331 332 332 333 334 333 333 333 333 332 332
349 356 347 351 354 351 350 357 350 351 343 346 343 337 337 340 343 340 338 337 337 335 338 339 335 332 329 330 329 329 328 328 328 328 327 328 329 329 328 328 327 327 325
350 352 353 350 355 347 357 356 356 343 343 343 339 334 326 328 333 338 338 337 336 335 334 334 332 332 331 326 326 325 325 325 326 325 324 325 325 324 323 323 324 323 322
352 354 355 353 357 351 346 353 352 352 339 344 347 336 327 325 328 330 334 333 334 330 328 327 327 327 326 323 322 321 321 322 323 322 322 322 322 322 321 321 321 321 321
347 349 353 353 356 348 349 350 351 349 348 339 341 342 344 338 326 321 328 331 330 327 326 323 323 324 325 323 321 318 317 317 317 319 320 320 320 321 320 320 320 318 317
344 343 346 349 350 347 350 351 349 349 346 343 337 338 341 336 340 326 320 321 325 325 323 323 322 321 323 323 320 316 316 316 315 317 318 319 320 319 318 315 314 314 314
341 343 342 343 338 337 340 338 342 346 345 344 342 339 336 332 330 328 324 321 321 323 321 321 322 320 320 320 319 317 316 315 313 312 312 315 315 313 311 311 312 312 312
334 335 331 327 323 320 320 326 331 337 339 336 342 337 337 335 335 332 325 322 318 320 317 318 318 320 319 317 316 316 313 312 311 311 312 312 310 309 309 309 309 309 310
315 318 318 319 317 318 316 319 319 322 323 329 333 335 333 335 334 330 329 320 316 315 315 317 317 317 319 317 315 314 313 310 308 308 310 309 308 307 308 307 308 308 307
309 308 309 308 309 311 309 310 311 311 316 321 322 324 327 330 325 326 329 324 316 309 309 313 309 321 317 313 309 312 315 308 307 305 306 310 308 307 307 306 307 306 306
308 307 307 306 307 306 307 307 306 309 306 309 310 313 316 322 322 322 322 322 320 315 310 313 311 314 317 313 308 315 311 307 306 306 306 309 309 309 308 307 307 306 306
308 306 307 305 304 305 306 304 305 306 305 305 307 306 307 313 317 321 318 319 318 320 315 311 313 315 317 317 310 313 312 312 308 308 306 306 306 307 306 306 306 306 306
307 305 305 304 304 304 304 304 304 303 302 303 304 306 306 309 310 313 314 314 316 320 311 309 309 309 313 316 316 315 312 311 311 309 307 307 308 308 308 308 308 307 307
306 306 305 304 303 303 303 304 303 302 301 301 302 302 304 307 308 310 309 313 314 313 312 309 308 311 311 313 313 314 315 317 313 316 310 310 309 308 309 308 308 307 306
305 305 305 304 303 304 304 304 303 301 301 301 302 302 304 304 305 306 308 311 313 314 314 310 309 308 309 314 313 310 310 313 313 311 314 311 311 310 309 308 308 308 306
305 305 303 303 303 302 302 302 302 301 301 301 303 304 306 307 309 310 311 311 312 313 309 308 306 308 308 309 309 311 310 311 313 312 310 311 309 310 310 309 310 310 308
306 306 304 303 303 302 302 302 302 302 302 303 303 305 307 307 308 307 311 311 311 312 309 307 307 307 312 314 312 310 309 307 304 314 310 306 310 308 309 310 308 303 305
308 307 306 305 305 305 302 303 304 306 304 305 306 307 306 307 309 308 307 307 307 308 307 312 313 312 312 314 316 313 313 309 306 309 308 303 307 306 310 308 307 305 304
309 308 308 307 307 305 302 302 304 306 307 306 307 308 307 308 309 310 308 308 308 309 311 309 312 314 317 317 317 314 313 312 309 308 310 302 308 307 309 310 306 305 303
305 307 307 306 307 305 302 301 302 307 306 305 306 309 309 309 307 303 309 310 311 312 310 308 305 302 301 300 302 306 303 302 300 301 307 305 305 305 306 307 308 306 303
302 303 303 305 305 306 300 299 301 306 306 305 307 308 306 308 302 301 307 309 309 311 313 311 308 305 302 305 302 305 304 300 299 299 307 303 303 303 300 305 307 308 308
Wind_Speed
8 9 7 8 7 9 7 7 5 4 5 8 3 2 3 5 15 9 4 19 10 5 4 2 4 9 11 10 10 10 11 10 9 8 8 7 7 6 6 5 4 4 3
7 9 8 7 7 8 7 7 5 5 7 7 13 7 1 3 4 13 10 12 14 13 13 12 10 7 3 7 8 9 8 9 10 9 8 8 9 8 7 6 5 4 3
8 9 9 8 9 6 10 6 6 6 6 5 3 4 5 3 7 11 7 10 11 15 15 16 17 16 15 13 12 9 8 7 5 4 2 2 5 5 4 4 4 1 2
11 9 9 9 9 7 9 7 6 7 8 7 5 1 4 8 6 11 8 7 7 8 13 18 18 18 19 19 19 19 19 17 17 16 15 14 13 11 10 10 11 10 9
16 10 11 9 7 8 8 7 8 9 8 7 5 7 4 2 4 8 7 8 7 7 7 15 18 17 17 16 17 17 17 16 16 16 16 16 15 15 15 14 14 14 13
15 12 11 11 9 8 10 9 9 9 8 7 7 6 5 5 5 8 7 6 8 7 7 8 10 10 15 14 14 15 15 15 15 15 14 14 16 16 15 17 14 16 14
15 10 11 11 8 9 11 9 8 7 8 7 8 6 4 3 7 6 7 6 7 6 5 8 8 8 8 13 12 13 13 13 13 13 11 12 14 13 13 13 12 13 11
13 12 12 12 11 11 10 8 9 9 10 9 9 8 6 4 5 7 7 7 9 7 7 5 6 5 10 8 9 11 12 12 11 11 11 11 11 11 11 12 12 11 11
11 11 11 12 8 11 10 9 10 12 11 9 11 8 7 8 11 7 8 6 9 7 7 7 7 6 7 9 9 9 10 11 10 9 9 10 10 10 11 10 10 10 10
8 10 11 10 9 9 12 11 10 12 12 10 9 11 11 4 7 8 8 4 6 8 8 8 8 6 7 9 14 11 9 9 8 7 7 8 8 9 9 9 9 9 10
11 12 11 10 10 9 11 9 11 13 11 12 8 11 12 7 10 9 11 9 7 8 8 8 8 8 7 10 9 9 8 8 8 7 7 7 9 9 9 9 9 9 9
6 11 10 5 4 4 3 5 5 10 11 10 11 9 11 11 11 9 7 12 11 10 8 7 6 8 7 7 12 14 10 9 6 5 5 6 7 6 5 6 8 8 9
1 2 5 7 6 6 4 4 3 5 7 9 10 9 10 11 10 10 5 11 12 9 9 8 9 8 8 9 9 12 10 8 6 5 6 6 4 4 4 6 7 8 9
3 6 7 8 8 8 6 4 3 4 5 5 7 7 8 6 5 5 7 10 11 10 8 7 7 7 6 7 11 11 10 10 6 2 4 3 2 2 4 5 7 7 7
4 5 5 6 9 8 8 7 5 5 4 4 4 4 5 5 4 1 1 5 11 10 11 10 7 4 5 5 9 9 11 13 8 4 3 6 4 4 4 6 7 6 7
6 5 5 5 4 9 7 8 6 7 8 7 6 4 5 4 4 3 3 2 2 6 9 11 9 7 4 7 7 3 9 10 12 10 8 7 8 8 8 8 8 9 9
4 6 5 7 7 8 8 8 8 8 13 7 8 8 9 7 5 2 2 4 4 2 5 9 7 7 3 2 6 5 6 5 9 14 12 9 8 8 9 10 10 11 12
6 7 6 7 7 7 7 8 10 9 11 11 8 9 8 8 9 6 5 5 6 2 10 10 10 6 6 5 4 6 4 4 3 15 12 11 12 12 10 10 11 12 13
6 7 7 8 7 7 7 7 8 9 11 10 9 9 11 11 9 8 8 5 6 5 7 6 6 7 6 7 6 5 5 5 6 9 18 17 14 13 14 16 16 16 16
6 7 7 7 7 8 7 7 7 9 9 9 8 8 8 9 6 9 8 7 5 2 4 6 7 6 7 8 5 6 7 8 7 6 4 7 9 17 21 20 20 19 19
6 6 7 6 6 6 5 7 7 7 7 8 8 9 7 12 16 10 5 4 4 2 5 5 6 6 6 6 7 7 6 4 5 7 8 7 7 8 10 19 19 21 19
10 10 10 9 9 7 12 12 9 6 8 7 8 9 7 9 5 4 6 5 2 5 7 6 6 8 8 3 3 5 7 7 7 4 6 7 6 8 8 8 5 9 12
9 11 11 11 10 9 14 11 11 8 9 8 9 9 9 8 8 7 5 3 2 1 2 4 5 2 3 5 5 5 6 6 8 7 8 9 9 10 9 9 11 12 13
5 8 8 9 9 10 12 11 12 8 7 6 6 5 7 9 9 8 7 6 5 6 6 5 4 6 6 5 4 5 6 7 8 10 11 11 10 10 9 8 8 12 16
4 3 5 4 9 12 8 6 5 7 5 7 9 7 6 7 8 5 5 8 8 7 7 9 7 2 1 3 3 5 9 10 10 9 8 9 9 10 10 9 9 13 14
1 2 1 2 1 7 9 7 5 4 6 4 2 3 6 8 7 10 7 7 7 8 9 9 7 6 7 9 10 9 9 10 10 11 9 9 10 10 15 9 10 11 12
Wind_Direction
204 216 215 221 189 186 186 205 210 130 211 238 8 83 273 329 189 92 114 87 81 104 115 117 240 234 227 224 217 214 206 204 205 210 213 217 218 222 220 215 214 224 234
211 222 221 229 227 219 197 206 189 171 228 226 111 263 30 264 303 18 93 86 82 80 80 74 63 49 344 247 228 222 228 216 209 210 212 224 224 226 235 230 233 238 246
214 242 223 202 235 232 241 201 151 189 244 246 126 140 236 234 52 74 66 110 110 89 83 77 67 58 59 62 65 69 74 73 78 80 122 228 234 223 231 249 249 286 34
239 207 235 213 224 217 230 214 174 193 225 218 189 10 37 65 59 82 90 85 98 92 83 80 75 72 67 67 70 67 69 71 70 68 64 68 72 78 78 79 77 79 77
212 217 234 227 217 223 224 223 194 215 204 237 141 101 80 83 120 85 97 97 92 113 110 92 82 77 78 75 74 72 69 67 68 66 67 66 61 58 67 69 74 64 59
219 200 228 239 200 220 226 216 230 208 229 204 124 122 149 179 141 123 130 124 136 134 146 130 113 87 86 83 82 83 81 77 74 76 78 78 75 67 61 67 61 68 60
211 220 223 222 204 222 238 202 219 221 225 204 112 129 117 205 136 154 156 156 168 142 165 163 141 133 108 98 87 86 80 85 90 86 78 86 89 92 87 82 79 75 72
213 212 219 241 196 223 232 229 215 209 225 211 182 172 173 194 213 190 172 176 187 167 151 164 103 121 149 84 91 92 91 94 96 95 90 83 80 79 78 81 77 73 67
220 229 214 232 213 206 228 212 212 224 207 207 207 210 210 219 164 186 183 198 169 170 152 140 154 129 114 111 132 95 84 85 89 90 96 99 102 91 73 64 62 58 49
248 239 236 228 243 216 241 196 217 222 238 212 193 244 258 77 189 171 196 144 193 163 169 168 148 149 151 103 84 93 96 85 89 92 103 98 96 89 74 63 56 39 23
198 231 243 243 237 234 238 249 212 218 224 242 197 204 235 223 225 183 173 175 200 186 175 163 162 167 164 147 123 112 122 103 85 74 83 102 99 76 65 49 31 20 15
203 202 211 223 52 10 307 316 283 240 238 244 254 206 223 212 216 215 179 167 188 182 175 191 179 166 161 105 90 118 118 113 106 93 88 95 95 83 64 43 19 4 359
202 160 133 117 109 83 48 20 352 257 255 254 259 266 226 216 231 214 182 172 175 176 169 173 202 176 157 151 137 138 138 131 122 138 133 123 117 90 43 8 1 350 343
108 144 129 130 128 127 109 84 35 348 332 286 271 268 295 224 243 246 228 173 162 167 169 186 185 182 163 162 142 169 153 150 141 129 167 160 139 30 355 347 331 329 326
83 74 77 98 116 114 100 90 82 51 16 339 324 281 293 285 246 352 279 177 164 163 182 185 167 205 166 138 150 197 141 148 155 166 226 218 226 261 290 302 299 296 293
106 110 101 101 135 97 104 92 75 75 74 43 8 20 306 290 254 271 296 342 128 173 181 161 179 154 193 175 151 239 112 151 172 181 190 212 232 255 270 279 281 280 283
97 101 121 129 116 120 102 94 93 82 82 57 77 45 17 2 315 46 66 146 129 262 212 121 130 130 188 210 146 222 165 221 169 188 186 197 226 248 262 266 270 274 282
93 96 92 83 82 84 100 110 116 107 94 74 58 73 59 44 9 355 75 84 84 8 106 142 130 135 200 228 197 207 250 241 249 177 192 203 220 231 242 255 260 267 272
90 109 117 91 92 83 83 88 96 100 85 81 70 49 53 54 42 21 23 38 64 101 106 109 137 161 191 193 209 244 235 230 253 192 204 213 220 227 234 235 236 241 246
103 88 89 97 83 90 94 99 91 83 85 82 78 77 66 64 45 29 356 3 27 73 155 134 177 181 193 185 216 239 208 211 236 262 256 248 214 220 231 237 237 237 242
128 122 119 115 115 108 101 99 98 103 115 135 152 143 167 164 177 178 174 179 190 151 176 172 182 189 192 176 201 218 224 279 264 240 256 258 234 236 238 234 244 241 249
171 163 154 152 158 157 150 149 140 152 154 169 165 167 166 164 157 115 136 123 6 171 189 196 200 208 210 185 264 253 246 247 263 259 266 273 268 270 277 278 276 177 203
186 176 171 168 168 152 167 187 189 169 169 188 169 174 164 176 179 182 190 207 208 41 331 336 289 304 254 230 268 289 272 262 257 276 291 276 271 271 267 269 240 235 231
206 173 177 173 158 153 171 179 185 179 178 166 148 161 199 160 200 187 185 199 224 227 239 240 247 277 284 300 263 270 281 287 273 253 239 258 260 267 275 277 266 242 242
8 100 104 144 161 141 156 158 175 156 166 186 202 205 209 185 186 200 223 207 215 229 187 201 215 198 343 354 4 295 266 261 270 274 268 277 284 292 289 289 285 262 255
154 57 42 200 182 158 140 143 196 233 195 213 203 251 250 253 185 193 213 238 241 245 232 199 213 231 238 243 219 237 264 270 274 273 280 294 293 298 292 278 286 294 291